{"data":{"norad_id":57360,"epoch":"2026-09-20T14:39:08.780256Z","epoch_age_seconds":114643,"freshness":"FRESH","line1":"1 57360U 23099AJ  26263.61051829  .00001337  00000+0  58114-4 0  9991","line2":"2 57360  43.0036 220.5541 0001549 265.9855  94.0819 15.27580023176016","mean_motion":15.27580023,"eccentricity":0.0001549,"inclination_deg":43.0036,"raan_deg":220.5541,"arg_perigee_deg":265.9855,"mean_anomaly_deg":94.0819,"bstar":5.8114e-5,"rev_number":17601,"period_min":94.266747294325,"perigee_km":481.98622945377,"apogee_km":484.11182488499,"semimajor_km":6861.1860271694,"source":"CELESTRAK","updated_at":"2026-09-21T09:00:33.602652Z"}}